C/2024 XK14 ( Bok )

Japanese version
Home page
Updated on July 14, 2025

---------------------------------------------------------------------

* Profile

Discovery Date December 3, 2024
Magnitude 22.6 mag
Discoverer Bok reflector at Kitt Peak

* Orbital Elements

Epoch 2025 May 5.0 TT = JDT 2460800.5                                           
T 2025 May 20.90936 TT                                  Pike                    
q   2.0595962            (2000.0)            P               Q                  
n   0.01406212     Peri.  243.48562     +0.48198984     -0.33362250             
a  16.9994741      Node   239.08914     +0.54872602     -0.60593731             
e   0.8788435      Incl.  109.21427     -0.68307068     -0.72217450             
P  70.1                                                                         
From 48 observations 2024 Nov. 28-2025 July 9, mean residual 0".6.              

* Magnitudes Graph

        m1 = 3.0 + 5 log d + 40 log r

---------------------------------------------------------------------

The orbital elements are published on M.P.E.C. 2025-N87.
The magnitudes graphs are made with Comet for Windows.

---------------------------------------------------------------------

Copyright(C) Seiichi Yoshida (comet@aerith.net). All rights reserved.